RH
8 15 17 12 17 26 40 43 22 18 19 26 28 25 21 17 16 17 19 20 20 19 19 18 18 18 18 16 14 14 14 11 10 11 14 15 15 14 10 5 3 3 4
7 8 16 14 10 15 23 37 46 38 30 25 22 19 16 13 11 11 12 16 17 18 19 19 20 20 18 17 16 16 18 20 18 17 13 10 11 13 14 14 11 7 3
8 9 9 13 16 17 12 15 17 18 21 21 24 30 34 24 21 15 12 13 9 13 17 18 18 17 17 18 18 18 16 15 15 15 18 21 20 13 9 10 12 12 12
9 9 9 8 11 14 12 11 10 9 11 11 13 16 22 39 33 25 19 14 16 17 13 10 10 12 12 12 12 12 12 11 11 12 13 13 16 19 22 19 13 10 10
9 8 8 8 8 8 8 9 8 8 10 8 8 8 9 27 43 41 35 29 24 21 19 18 18 18 18 19 19 21 21 22 22 20 13 10 12 13 14 15 19 21 15
9 9 9 8 8 8 8 8 7 7 7 7 7 7 7 7 11 34 44 45 44 37 33 30 29 27 26 24 22 20 19 20 20 20 24 23 23 20 15 14 15 15 16
10 10 9 9 9 9 8 8 8 7 7 7 6 6 7 7 7 8 8 8 10 12 13 20 24 24 21 20 20 21 22 22 22 22 19 16 16 23 27 26 24 17 16
10 10 9 9 9 8 8 8 8 7 7 7 6 6 6 6 6 7 7 7 7 7 7 7 7 9 14 19 21 16 17 17 17 17 15 14 17 18 15 19 25 27 25
10 10 9 9 8 8 8 8 8 8 7 7 7 7 6 6 6 6 6 7 7 8 8 8 9 9 8 7 7 8 8 8 9 10 14 21 20 14 11 13 16 16 20
9 9 8 8 8 8 8 8 8 7 7 7 7 7 7 7 8 8 9 9 9 9 10 11 11 14 23 24 25 22 20 14 11 11 14 15 14 12 11 10 10 12 15
8 8 7 7 7 6 7 7 7 7 7 7 7 8 9 10 11 12 12 12 12 13 13 13 13 13 13 12 12 13 14 15 16 15 16 18 22 25 26 24 19 15 13
8 8 7 6 6 6 7 7 7 8 8 9 11 14 15 16 14 13 12 11 10 10 10 10 9 9 8 8 7 8 7 7 7 8 8 8 8 8 8 8 8 12 18
8 7 7 7 8 8 8 9 10 11 15 16 19 19 16 12 10 10 10 9 9 9 9 8 7 7 7 7 8 8 7 7 7 8 8 8 8 9 10 11 11 11 11
8 7 7 7 8 10 13 15 17 18 21 23 19 14 12 10 9 8 7 7 7 7 7 7 7 7 7 7 7 7 7 7 7 7 7 8 8 8 8 12 12 18 24
8 8 8 8 12 16 18 21 23 26 26 19 14 10 9 8 8 7 7 7 7 7 7 7 7 7 7 6 6 6 6 6 7 7 8 9 10 11 12 14 15 18 27
8 8 10 13 18 23 26 28 27 24 18 13 8 7 8 10 12 13 12 11 10 9 8 6 6 5 5 6 7 8 10 12 13 14 14 15 17 18 16 15 21 26 35
10 12 13 17 25 26 28 24 20 17 11 7 11 13 13 13 14 13 12 9 7 6 6 8 9 10 11 12 12 13 13 13 14 16 17 16 14 11 10 10 12 22 33
26 26 22 23 28 27 18 15 14 12 11 12 12 11 12 14 12 8 7 8 11 11 9 6 4 2 2 2 3 3 6 9 9 9 9 8 10 13 14 15 14 15 19
25 28 29 27 17 10 10 10 11 12 11 11 12 14 12 8 9 13 13 8 3 2 2 2 2 2 2 2 2 2 3 4 5 6 11 13 13 15 16 18 19 18 19
30 30 26 14 11 11 11 12 12 14 15 13 9 9 14 16 11 4 2 2 2 2 3 4 7 7 5 5 4 4 5 6 14 15 15 18 20 22 22 26 26 28 29
33 32 14 13 13 13 12 11 9 7 8 13 17 15 6 3 2 2 3 3 4 7 10 15 15 16 13 12 14 13 13 13 15 19 26 31 34 31 29 22 20 18 17
32 23 17 14 12 9 7 7 11 17 17 10 3 2 3 3 4 7 10 14 14 13 14 14 15 19 18 16 16 17 18 19 24 32 32 24 22 25 26 24 21 19 18
16 13 10 9 8 8 13 18 17 6 3 3 3 5 7 13 15 14 16 15 12 10 6 12 16 20 23 22 24 27 30 30 32 31 28 20 20 22 20 13 17 22 26
10 9 9 8 13 18 15 6 3 3 4 8 14 16 17 18 16 13 9 7 5 6 15 21 22 24 28 27 16 13 16 13 8 21 10 8 12 18 14 20 33 40 49
9 9 11 18 17 6 3 3 5 7 7 6 6 8 15 16 16 14 9 5 4 11 23 25 25 22 9 8 6 6 6 7 7 7 9 8 7 15 16 24 38 64 85
10 15 19 12 5 3 4 7 6 10 12 12 11 9 6 6 8 7 8 6 4 6 23 18 6 6 6 8 9 9 7 6 9 12 13 13 9 13 22 29 48 72 87
Wind_Speed
2 2 3 3 3 3 4 4 5 5 5 6 9 11 13 15 16 17 17 16 14 13 11 10 10 11 12 13 12 12 11 9 9 9 9 9 9 9 9 9 10 10 10
2 1 0 1 2 3 4 4 4 5 6 6 7 9 10 11 11 11 14 18 19 18 17 15 14 13 12 12 12 12 13 14 14 13 11 12 12 12 11 10 11 11 12
4 3 2 3 3 4 5 6 6 7 8 9 10 10 12 12 13 12 11 10 11 16 19 19 19 18 18 18 17 17 16 17 16 16 16 16 15 14 15 14 14 14 14
4 4 2 3 4 5 6 7 8 9 9 11 12 13 14 13 13 13 12 11 10 9 9 11 15 18 20 21 22 22 21 21 21 22 22 20 19 19 18 17 18 18 18
4 4 3 2 3 5 6 8 10 11 13 14 15 16 16 15 15 14 14 13 13 13 12 11 11 12 12 12 13 14 15 15 16 16 18 20 22 23 23 22 21 21 21
5 4 5 5 6 7 8 10 12 13 14 15 16 17 17 18 18 18 17 17 16 16 16 16 16 16 17 17 18 18 18 18 19 19 18 21 19 20 22 25 27 25 25
7 6 6 7 8 9 11 12 13 15 17 18 18 18 19 19 19 20 20 21 22 22 22 22 22 22 22 22 23 24 24 24 24 25 24 24 24 24 23 24 24 27 29
7 8 9 10 11 12 14 16 17 17 19 20 21 22 22 22 22 22 22 22 23 24 25 26 27 27 27 28 28 29 29 30 30 29 29 30 30 29 29 28 27 27 28
9 10 11 13 14 15 16 18 20 21 22 23 24 25 25 26 26 26 27 27 27 28 29 30 30 30 31 32 33 33 33 33 35 33 33 33 33 32 32 33 33 33 32
11 12 14 15 16 18 19 20 22 24 25 26 27 28 29 29 29 30 30 31 31 31 32 32 33 34 34 33 34 36 36 37 38 38 37 36 37 38 36 36 35 36 37
13 14 16 17 18 20 22 22 24 26 27 29 29 30 31 31 31 31 32 32 32 32 31 31 32 31 32 32 33 34 34 34 35 35 35 36 36 37 39 38 39 39 38
15 16 18 19 20 21 23 24 25 26 28 29 31 31 32 31 30 30 29 28 28 29 30 31 32 32 32 33 33 34 35 35 35 35 35 36 36 35 36 38 37 38 39
18 19 20 21 23 23 23 25 27 29 31 32 32 32 30 29 28 27 27 28 29 30 32 33 33 33 33 34 34 35 36 37 38 39 39 40 40 40 39 40 40 39 40
22 24 24 26 27 28 28 30 32 33 33 32 31 29 27 27 28 29 28 29 29 30 32 34 35 37 38 39 40 41 42 43 44 45 46 47 48 48 48 47 46 46 45
26 28 29 32 30 30 33 35 36 35 31 29 28 28 27 27 27 27 30 32 34 36 37 38 40 42 44 45 47 48 49 50 51 51 52 52 52 52 53 53 52 52 52
29 30 32 32 32 34 37 38 36 33 29 28 27 27 29 30 32 34 36 39 41 43 45 46 47 48 50 52 53 54 54 54 53 52 51 50 49 49 50 51 52 52 53
33 34 34 34 33 37 38 36 33 30 29 29 30 33 34 36 39 40 42 44 46 48 50 51 52 53 53 54 54 55 55 54 51 48 46 47 48 49 48 47 48 49 49
36 38 35 34 36 36 34 32 31 30 31 33 36 38 41 43 44 46 47 48 49 51 52 52 52 53 53 53 53 53 52 52 51 50 49 47 43 42 44 46 47 47 49
34 32 33 34 33 29 28 29 31 33 36 39 42 44 46 47 47 48 49 49 48 48 50 52 54 54 55 56 55 53 50 47 45 43 39 41 44 45 47 51 52 53 54
31 28 33 31 29 29 31 33 35 38 41 44 45 47 48 49 48 47 47 48 49 49 47 44 38 37 38 39 40 40 40 35 31 36 41 44 46 49 52 53 54 57 58
33 34 32 31 32 34 35 37 40 42 44 45 46 47 46 46 47 47 45 44 41 36 30 30 31 32 28 22 22 24 26 30 37 42 44 45 47 50 52 54 56 58 60
35 33 33 35 36 38 40 42 43 44 45 45 45 46 47 46 42 38 33 32 31 30 33 33 33 33 30 29 29 30 32 37 40 40 39 40 41 46 51 55 58 61 63
35 35 35 37 39 41 42 43 43 42 43 46 46 42 36 31 27 27 28 29 32 35 36 34 33 30 30 29 30 32 32 30 27 27 33 37 40 42 49 48 45 47 50
36 37 39 40 40 41 42 40 41 44 41 36 30 30 30 29 28 27 30 33 33 34 31 28 26 26 26 28 28 21 18 17 16 18 27 31 35 40 46 36 37 36 33
39 40 39 39 40 39 38 40 38 31 31 33 33 32 30 29 29 29 30 32 32 29 25 22 21 21 16 12 13 17 19 20 22 22 25 30 36 41 41 31 33 29 23
42 42 40 39 38 38 37 29 28 31 36 39 39 36 35 31 29 29 29 31 27 26 22 18 11 11 12 15 17 17 18 20 22 24 28 33 35 40 39 28 24 17 18
Wind_Direction
125 101 81 59 36 16 4 16 25 19 352 312 296 293 293 291 287 284 281 280 282 281 280 283 281 280 280 279 279 282 285 282 283 284 286 292 296 300 302 300 290 279 275
185 164 88 20 353 345 343 345 342 343 341 326 314 308 306 306 310 308 294 280 273 274 276 277 279 280 281 283 286 286 286 284 281 283 286 284 281 281 283 287 290 289 280
221 237 270 294 307 313 317 321 321 318 317 314 312 306 303 301 301 303 310 320 299 278 273 275 278 279 280 279 280 281 283 286 285 284 283 280 281 283 281 277 274 275 276
234 246 261 294 308 315 311 311 312 310 309 305 306 305 303 298 299 300 301 297 295 299 296 284 278 277 278 279 279 279 279 279 278 277 277 278 279 277 276 277 278 275 273
224 236 260 291 316 322 320 318 312 307 302 300 299 297 298 296 290 295 297 299 296 294 292 289 287 286 286 285 286 287 285 285 286 288 285 277 268 273 276 274 272 273 275
233 244 263 280 293 305 311 314 316 317 315 310 305 302 299 294 288 285 285 286 289 289 288 286 285 283 283 283 283 282 280 280 281 282 281 283 282 279 277 274 272 270 269
233 254 268 281 289 297 303 306 309 313 313 311 309 305 301 298 293 289 285 281 281 280 279 278 277 276 277 278 279 279 277 276 275 277 277 276 276 274 272 273 274 272 269
246 262 274 280 288 293 298 301 304 306 307 306 306 304 300 296 292 288 288 287 284 284 284 284 281 278 276 276 276 276 277 277 276 275 276 276 275 273 272 270 269 268 269
258 267 276 284 288 293 295 298 301 302 301 303 304 304 301 299 294 289 286 284 284 283 284 284 284 282 282 282 282 281 281 281 280 278 277 277 277 275 274 273 271 269 266
271 279 284 287 290 292 293 295 295 296 297 297 297 299 296 294 292 289 289 287 286 286 286 285 286 285 285 284 282 283 283 282 280 280 279 277 277 277 276 275 274 274 272
281 288 291 293 296 296 296 295 294 295 296 296 296 296 295 294 292 289 288 288 288 288 288 288 288 287 287 286 285 285 284 283 283 282 282 280 278 278 278 276 274 273 273
291 295 298 300 299 299 298 297 296 296 296 296 295 295 294 291 289 287 288 289 290 290 289 288 288 287 285 284 284 283 284 284 283 282 280 278 276 275 275 275 274 273 272
294 298 299 299 299 298 296 296 295 295 295 295 295 293 290 290 289 288 288 287 287 286 285 285 284 283 283 284 284 283 282 282 282 281 280 279 277 275 273 272 272 271 271
291 294 297 297 298 297 298 294 294 294 294 293 290 287 286 284 285 287 287 286 284 282 283 284 285 285 284 283 282 282 281 280 278 278 278 278 278 277 275 274 273 272 270
290 294 299 299 299 298 297 296 296 296 292 286 283 283 284 286 286 287 287 287 286 285 284 283 282 282 281 281 280 280 278 278 278 278 278 280 279 279 279 277 276 274 272
292 296 298 298 298 298 298 298 297 292 286 282 281 282 285 286 288 288 287 286 285 285 285 284 283 282 281 280 280 279 279 279 279 279 279 278 279 279 278 279 278 276 274
295 295 293 296 294 297 296 294 291 285 281 280 281 283 285 287 288 288 288 287 287 287 286 285 284 283 282 281 281 281 281 280 280 280 278 277 277 278 279 278 276 275 274
292 292 289 290 290 291 288 286 283 280 280 281 283 286 288 289 289 289 289 288 288 287 287 287 286 285 283 282 280 278 278 278 278 278 278 279 276 275 277 277 274 272 273
293 290 290 290 288 285 283 281 279 279 282 285 288 289 290 290 290 290 291 290 291 290 290 288 287 286 284 281 279 277 277 276 275 276 276 279 279 276 279 278 273 271 269
288 288 288 284 283 282 281 282 284 285 287 287 289 291 292 292 292 292 292 292 292 291 290 290 292 294 290 286 282 279 279 278 274 278 280 281 281 280 280 278 275 273 270
291 293 287 284 283 284 286 288 288 287 289 290 290 291 291 292 292 294 295 294 292 290 289 295 297 295 300 297 288 283 276 275 276 279 281 284 286 286 284 282 279 275 271
287 285 284 285 287 289 290 291 291 292 291 292 292 292 293 295 295 294 291 291 293 290 287 290 288 286 286 287 284 280 277 278 281 286 291 292 292 291 290 288 283 277 272
279 281 284 287 288 290 290 289 289 291 292 293 293 296 298 296 293 293 292 290 290 291 295 290 283 286 290 291 290 290 290 290 291 299 301 299 298 299 299 302 294 289 283
279 281 283 287 289 288 287 289 294 293 295 297 300 299 297 293 291 293 295 294 296 297 296 296 290 289 294 297 298 298 297 297 305 303 308 310 308 310 319 309 306 299 296
280 284 287 289 287 286 290 293 294 296 298 298 294 292 291 289 290 290 298 301 298 300 300 296 297 297 300 308 314 319 319 316 317 313 316 321 321 325 331 313 312 306 314
287 290 288 285 284 290 294 291 297 302 302 299 293 286 282 284 285 290 295 305 299 299 299 297 298 302 305 313 316 319 320 321 325 330 330 332 331 337 344 330 319 337 346